Location: *
(45.5667°S, 177.5167°W)
Time: 23:24:21
(UTC+00:00)

Cosmos 1802 Rocket - Pass Details

Date: 29 May 2022
Orbit: 953 x 1012 km, 82.9° (Epoch: 24 June)

Event Time Altitude Azimuth Distance (km) Brightness Sun altitude
Rises 05:12:51 0° 186° (S) 3,767 6.9 -9.5°
Reaches altitude 10° 05:15:27 10° 182° (S) 2,817 6.2 -9.9°
Maximum altitude 05:21:52 59° 102° (ESE) 1,171 4.1 -11.0°
Drops below altitude 10° 05:28:14 10° 23° (NNE) 2,799 6.4 -12.0°
Sets 05:30:48 0° 19° (NNE) 3,740 7.1 -12.5°
